COSMOS 1275 DEB, 14406

Orbit data source: Space-Track

COSMOS 1275 DEB, 14406 is space debris in LEO originally from a launch on Thu, 04 Jun 1981 UTC launched from the Plesetsk Missile And Space Complex (PKMTR). Debris objects in space refer to the collection of defunct objects orbiting the Earth. Examples of debris include non-operational satellites, rocket bodies, and fragments generated from explosions, collisions, or faulty payload assembly.

Loading next visibility...
Identifier
14406, 1981-053JB
Orbit
LEO
Country
Flag of CISCIS
Related business
Manufacturer
Unknown
Mission
Spacecraft
Bus & Motor
Unknown
Mass
Unknown
Launch date (UTC)
1981-06-04 (45 years ago)
Launch vehicle
Unknown
Launch site
Plesetsk Missile And Space Complex (PKMTR)
Object type
Payload
Rocket body
Debris
Shape & HBR
Unknown shape, 0.1 m
Radar Cross Section
Medium (>0.1 m² and <1 m²)

Expand to show TLE details & history
Last TLE update: 9 hours ago

TLE from 9 hours ago
0 COSMOS 1275 DEB
1 14406U 81053JB  26207.15943348  .00002648  00000-0  11836-2 0  9997
2 14406  82.8390 353.0582 0020710  91.2236  84.4846 14.22231722227355
Epoch: 2026-07-26T03:49Z
TLE epoch observation values (Epoch: 2026-07-26T03:49:35.052Z)
Latitude
3.93088°
Longitude
171.30876°
Altitude
818.952 km
Speed
7.445 km/s
True Right ascension
11h 30m 15s
True Declination
3° 54' 27"
Sunlit
Object was in daylight at epoch
Visualization orbit readout
Latitude
Unknown
Longitude
Unknown
Altitude
Unknown
Speed
Unknown
Apparent Right ascension
Unknown
Apparent Declination
Unknown
Sunlit
N/A
Visualization observer readout
Local Sidereal Time
02:20:54
Azimuth
Unknown
Elevation
Unknown
Doppler factor
Unknown
Orbital elements
Apogee altitude
829.8 km
Perigee altitude
800.006 km
Semi-major axis
7,193.04 km
Eccentricity
0.00207
Inclination
82.839°
RAAN
353.0582°
Arg. of periapsis
91.2236°
True anomaly
84.72088°
Mean anomaly
84.4846°
Eccentric anomaly
84.60273°
Mean motion
3.55774 °/min
Orbital period
101.19 mins
BSTAR
0.0011836
Loading maneuver chart data...
Computing Atmospheric mass density...
Loading historical data...
Loading historical data...
Loading historical data...
Loading historical data...
Loading historical data...
Loading historical data...
Loading historical data...

Documentation

Showing up to 5 results
|